Location: *
(53.3867°N, 14.6147°E)
Time: 06:20:10
(UTC+00:00)

Daily predictions for brighter satellites

Satellite Brightness Start Highest point End
(mag) Time Altitude Azimuth Time Altitude Azimuth Time Altitude Azimuth
COSMOS 2455 2.9 18:17:16 10° NW 18:23:21 80° NE 18:29:23 10° SE
STARLINK-1231 3.7 18:22:20 10° W 18:25:19 42° SSW 18:28:18 10° SE
H-2A R/B 2.1 18:20:16 10° SSE 18:25:27 87° WSW 18:30:30 10° NNW
Cosmos 1603 3.8 18:19:53 10° SSW 18:25:31 84° WNW 18:31:11 10° NNE
STARLINK-1232 3.7 18:23:15 10° W 18:26:13 41° SSW 18:29:11 10° SE
STARLINK-1217 3.7 18:23:42 10° W 18:26:41 41° SSW 18:29:39 10° SE
STARLINK-1138 3.7 18:22:34 10° W 18:26:42 73° SSW 18:30:51 10° ESE
STARLINK-1208 3.8 18:24:06 10° W 18:27:07 41° SSW 18:30:06 10° SE
Abrixas rocket 3.6 18:25:03 10° WSW 18:27:31 24° SSW 18:29:59 10° SE
STARLINK-1229 3.8 18:24:34 10° W 18:27:32 41° SSW 18:30:30 10° SE
STARLINK-1271 3.8 18:25:03 10° W 18:28:01 40° SSW 18:30:59 10° SE
STARLINK-1270 3.8 18:25:30 10° W 18:28:28 40° SSW 18:31:26 10° SE
STARLINK-1154 3.8 18:25:58 10° W 18:28:55 40° SSW 18:31:53 10° SE
STARLINK-1197 3.8 18:26:52 10° W 18:29:49 40° SSW 18:32:46 10° SE
STARLINK-1189 3.8 18:27:17 10° W 18:30:13 39° SSW 18:33:10 10° SE
STARLINK-1198 3.8 18:27:46 10° W 18:30:43 39° SSW 18:33:39 10° SE
Cosmos 2251 Rocket 4.2 18:25:24 10° SW 18:30:45 64° WNW 18:36:08 10° NNE
STARLINK-1188 3.8 18:28:11 10° W 18:31:09 39° SSW 18:34:05 10° SE
STARLINK-1143 3.7 18:27:32 10° W 18:31:41 71° SSW 18:35:49 10° ESE
STARLINK-1235 4.1 18:28:53 10° W 18:31:47 34° SSW 18:34:41 10° SE
STARLINK-1187 4.0 18:29:16 10° W 18:32:13 36° SSW 18:35:09 10° SE
Cosmos 1140 Rocket 4.0 18:28:01 10° S 18:32:46 37° ESE 18:37:30 10° NE
STARLINK-1199 3.9 18:30:09 10° W 18:33:07 38° SSW 18:36:05 10° SE
STARLINK-1191 3.9 18:30:36 10° W 18:33:33 38° SSW 18:36:30 10° SE
STARLINK-1210 3.9 18:31:03 10° W 18:34:01 38° SSW 18:36:58 10° SE
STARLINK-1221 3.9 18:31:30 10° W 18:34:28 38° SSW 18:37:25 10° SE
Ariane Rocket 3.5 18:29:42 10° S 18:34:44 66° WSW 18:39:48 10° NNW
STARLINK-1219 3.9 18:31:58 10° W 18:34:55 38° SSW 18:37:52 10° SE
STARLINK-1222 3.9 18:32:24 10° W 18:35:21 37° SSW 18:38:17 10° SE
STARLINK-1211 3.9 18:32:52 10° W 18:35:49 37° SSW 18:38:45 10° SE
STARLINK-1214 3.9 18:33:19 10° W 18:36:15 37° SSW 18:39:12 10° SE
STARLINK-1241 3.8 18:32:33 10° W 18:36:42 69° SSW 18:40:49 10° ESE
STARLINK-1245 3.9 18:33:48 10° W 18:36:43 36° SSW 18:39:36 10° SE
STARLINK-1238 3.9 18:34:12 10° W 18:37:09 37° SSW 18:40:05 10° SE
STARLINK-1205 3.9 18:35:09 10° W 18:38:04 36° SSW 18:40:58 10° SE
ERBS 2.3 18:34:40 10° WNW 18:38:04 85° NNE 18:41:22 11° ESE
STARLINK-1204 4.0 18:35:37 10° W 18:38:31 36° SSW 18:41:25 10° SE
Meteor 1-16 Rocket 4.2 18:34:42 10° S 18:40:11 89° ESE 18:45:53 10° NNE
CZ-2C R/B 3.1 18:35:30 10° S 18:40:18 72° WSW 18:45:04 10° NNW
Cosmos 614 Rocket 4.0 18:35:24 10° SSW 18:40:34 65° ESE 18:45:45 10° NNE
STARLINK-1239 3.8 18:37:31 10° W 18:41:39 66° SSW 18:45:36 11° ESE
ATLAS CENTAUR R/B 2.9 18:38:53 10° NNW 18:42:15 24° NNE 18:45:27 10° E
STARLINK-29 4.2 18:42:01 10° SSW 18:44:38 23° SSE 18:47:13 10° E
STARLINK-1240 3.8 18:42:30 10° W 18:46:37 64° SSW 18:50:23 12° ESE
Cosmos 1190 Rocket 4.1 18:41:29 10° S 18:46:37 54° ESE 18:51:47 10° NNE
Spot 2 Rocket 4.5 18:42:11 10° ESE 18:46:39 31° ENE 18:51:07 10° N
SJ-6B 3.1 18:42:40 10° S 18:46:48 76° WSW 18:50:57 10° NNW
Resurs 1-3 3.7 18:42:52 10° SSE 18:47:11 61° ENE 18:51:32 10° N
Aureole 1 Rocket 3.9 18:40:48 10° SSW 18:47:51 68° ESE 18:53:16 10° NNE
Cosmos 1300 3.5 18:45:21 10° SSE 18:48:42 30° E 18:52:06 10° NNE
SL-24 R/B 4.1 18:46:21 10° NNE 18:50:19 46° E 18:53:55 10° S
STARLINK-1216 3.8 18:47:28 10° W 18:51:34 62° SSW 18:55:09 13° ESE
STARLINK-60 3.5 18:48:57 10° SW 18:52:04 42° SSE 18:55:08 10° E
CZ-2C R/B 3.9 18:48:30 10° NNE 18:53:07 51° E 18:57:37 10° S
Terra 3.8 18:51:41 10° E 18:54:08 14° NE 18:56:36 10° NNE
STARLINK-1237 3.9 18:52:26 10° W 18:56:31 59° SSW 18:59:54 14° ESE
Cosmos 468 Rocket 4.4 18:52:59 10° NNW 18:58:03 49° ENE 19:02:21 14° SE
Cosmos 2058 Rocket 3.1 18:56:38 10° S 19:01:09 73° E 19:05:38 10° NNE
STARLINK-1202 3.9 18:57:25 10° W 19:01:30 57° SSW 19:04:42 16° SE
Cosmos 1461 4.5 18:58:24 10° WNW 19:02:31 35° WSW 19:06:44 10° S
Cosmos 1726 Rocket 3.8 18:59:24 10° SSW 19:03:49 74° WNW 19:08:18 10° N
SL-08 RB Rocket 4.2 18:59:19 10° S 19:03:52 65° W 19:08:29 10° NNW
DMSP B5D2-2 4.2 18:59:07 10° NNE 19:04:14 51° E 19:09:20 10° S
Cosmos 921 Rocket 3.4 19:00:25 10° NNW 19:04:34 61° WSW 19:08:41 10° S
Cosmos 2341 Rocket 4.0 18:58:53 10° N 19:05:20 78° E 19:11:44 10° SSE
SL-4 R/B 1.7 19:05:04 10° WSW 19:08:23 54° SSE 19:10:57 16° E
Cosmos 1726 4.1 19:05:13 10° SW 19:08:37 32° WNW 19:12:02 10° N
CZ-4C R/B 3.4 19:03:24 10° NW 19:09:44 48° NNE 19:16:38 12° E
ERS-1 Rocket 4.2 19:07:01 14° ESE 19:10:16 27° ENE 19:14:27 10° N
Cosmos 1408 4.1 19:08:14 10° NNE 19:11:06 21° ENE 19:12:35 17° E
STARLINK-1246 4.0 19:07:22 10° W 19:11:25 52° SSW 19:14:15 18° SE
RESURS DK-1 3.2 19:07:45 10° NNW 19:11:40 38° NE 19:14:21 18° ESE
Cosmos 407 Rocket 3.5 19:07:03 10° SSW 19:12:12 88° WNW 19:17:22 10° NNE
Cosmos 1908 4.0 19:08:26 10° SSW 19:12:15 56° WNW 19:16:08 10° N
Cosmos 1340 Rocket 2.8 19:08:39 10° SSW 19:12:42 87° WNW 19:16:45 10° NNE
Cosmos 2228 4.0 19:10:35 10° SSW 19:14:48 51° WNW 19:19:05 10° N
Cosmos 676 Rocket 4.0 19:10:40 10° S 19:15:49 57° ESE 19:20:59 10° NNE
COSMOS 2406 4.3 19:13:01 14° SE 19:16:10 22° ESE 19:20:25 10° NE
STARLINK-1224 4.1 19:12:23 10° W 19:16:25 50° SSW 19:19:04 19° SE
Cosmos 2218 Rocket 4.1 19:10:21 10° N 19:16:31 62° ENE 19:22:17 12° SSE
Cosmos 2058 3.1 19:14:19 10° N 19:18:21 51° ENE 19:21:10 18° SE
STARLINK-1203 4.2 19:14:32 10° W 19:18:35 47° SSW 19:21:13 20° SE
Cosmos 220 Rocket 4.0 19:14:22 10° NNW 19:18:43 87° ENE 19:22:12 16° SSE
Cosmos 1943 4.3 19:14:00 10° SW 19:19:29 49° NW 19:25:04 10° NNE
MOS 1 Rocket 3.6 19:15:26 10° NNE 19:20:50 67° E 19:26:15 10° S
STARLINK-1225 4.1 19:17:23 10° W 19:21:23 47° SSW 19:23:52 21° SE
Resurs 01 Rocket 1.6 19:17:44 10° SSE 19:22:05 89° WSW 19:26:33 10° NNW
CZ-2C R/B 2.6 19:17:01 10° NNE 19:22:10 61° ESE 19:27:19 10° S
STARLINK-52 3.5 19:21:53 10° SW 19:24:52 36° SSE 19:25:56 27° ESE
STARLINK-1230 4.2 19:22:21 10° W 19:26:20 45° SSW 19:28:38 22° SE
BREEZE M DEB (TANK) 4.0 19:24:24 10° SSW 19:27:54 32° SE 19:36:41 10° ENE
Cosmos 1812 Rocket 3.9 19:25:20 15° SSE 19:28:37 43° E 19:32:45 10° NNE
SL-8 Rocket 4.0 19:22:29 10° N 19:28:51 84° E 19:35:12 10° SSE
Cosmos 2369 4.3 19:23:34 10° NNW 19:29:01 46° NE 19:32:37 20° ESE
Cosmos 1697 Rocket 3.2 19:23:38 10° NNW 19:29:06 46° NE 19:32:44 20° ESE
Cosmos 2151 3.9 19:25:28 10° N 19:29:15 31° ENE 19:30:59 23° ESE
SPOT 3 Rocket 4.3 19:24:51 10° S 19:29:56 52° W 19:35:02 10° NNW
Cosmos 864 Rocket 4.5 19:24:14 10° N 19:30:27 69° ENE 19:35:37 15° SSE
STARLINK-1243 4.3 19:27:19 10° W 19:31:16 43° SSW 19:33:24 23° SSE
SL-24 R/B - RUBIN 2 4.4 19:26:06 10° SW 19:31:57 88° NW 19:38:29 10° NE
FALCON 9 DEB 3.5 19:29:53 10° SW 19:33:12 43° SSE 19:34:33 28° ESE
STARLINK-1236 4.4 19:32:19 10° W 19:36:14 41° SSW 19:38:11 24° SSE
Iridium 2 3.6 19:33:27 16° S 19:36:21 64° E 19:40:10 10° N
Cosmos 2181 Rocket 3.9 19:31:12 10° S 19:37:23 70° E 19:43:30 10° NNE
Cosmos 1954 Rocket 3.9 19:32:11 10° SSW 19:37:25 79° ESE 19:42:38 10° NNE
MINOTAUR IV R/B 4.5 19:34:12 10° SSW 19:38:40 82° ESE 19:43:12 10° NNE
Cosmos 2366 rocket 3.9 19:36:48 10° N 19:43:00 85° E 19:48:11 15° SSE
Cosmos 1076 Rocket 3.4 19:39:10 10° N 19:43:28 89° NE 19:46:20 21° S
Cosmos 1741 Rocket 4.4 19:41:05 13° S 19:45:26 42° ESE 19:50:27 10° NE
Meteor 2-1 Rocket 4.4 19:41:06 12° S 19:46:31 56° E 19:52:19 10° NNE
Cosmos 1656 3.7 19:42:14 10° NNW 19:47:58 87° NE 19:51:23 25° SSE
Cosmos 1763 Rocket 3.4 19:43:10 10° NNW 19:48:24 89° WSW 19:51:29 25° SSE
Landsat 7 3.8 19:46:17 26° SSE 19:48:57 67° ENE 19:53:42 10° N
SL-16 R/B 4.0 19:45:52 10° NNW 19:50:16 22° NNE 19:54:20 11° ENE
Cosmos 2360 Rocket 4.5 19:46:56 10° NNW 19:50:22 16° NNE 19:53:47 10° ENE
Cosmos 540 Rocket 3.7 19:46:57 10° NNW 19:52:04 56° ENE 19:54:30 29° SE
Cosmos 2208 Rocket 4.1 19:47:45 10° NNW 19:52:57 64° ENE 19:55:32 29° SE
SPOT 1/Viking Rocket 3.6 19:50:06 26° SE 19:53:03 66° ENE 19:58:16 10° N
SeaSat 1 4.4 19:50:31 10° NNE 19:54:53 32° NW 19:59:15 10° WSW
Cosmos 1455 2.8 19:56:32 36° ESE 19:56:49 37° E 20:00:23 10° NNE
Iridium 4 Rocket 2.9 19:52:37 10° N 19:56:51 86° E 19:59:06 27° S
Cosmos 2322 Rocket 4.0 19:52:57 10° NNW 19:57:15 21° NNE 20:01:15 11° ENE
USA 234 3.8 19:51:54 10° ENE 19:57:42 33° SE 20:03:28 10° SSW
Cosmos 1980 Rocket 2.8 19:53:53 10° NNW 19:59:17 45° NE 20:02:02 26° ESE
Cosmos 1892 2.8 19:56:29 10° NNW 20:00:23 76° W 20:02:13 30° S
Cosmos 1814 Rocket 4.1 19:58:09 10° NNW 20:03:31 67° ENE 20:05:55 33° SE
Cosmos 1825 2.4 20:01:16 10° N 20:05:00 52° ENE 20:05:39 46° ESE
ATLAS 5 CENTAUR R/B 2.2 20:02:52 10° WSW 20:07:11 62° NW 20:12:10 10° NE
Cosmos-2242 3.3 20:08:41 42° SE 20:09:34 49° E 20:13:48 10° NNE
Meteor 2-3 Rocket 4.3 20:05:30 10° N 20:11:00 44° ENE 20:13:03 32° ESE
ASTEX 1 4.4 20:10:30 28° E 20:11:36 31° ENE 20:15:55 10° N
Cosmos 489 Rocket 4.4 20:06:54 10° NNW 20:13:09 84° WSW 20:16:28 30° SSE
ERBS 4.0 20:11:23 10° W 20:14:05 22° SW 20:14:20 22° SW
Cosmos 1356 Rocket 3.5 20:13:46 45° SSE 20:14:46 59° E 20:18:57 10° NNE
Cosmos 2084 4.4 20:14:50 10° NW 20:19:06 42° NNE 20:20:49 29° ENE
SAR-Lupe-2 3.9 20:15:39 10° N 20:19:13 63° WNW 20:21:14 24° SW
STARLINK-29 3.5 20:17:16 10° WSW 20:19:43 47° SW 20:19:43 47° SW
Cosmos 2344 4.3 20:11:50 10° NW 20:20:40 73° NE 20:28:34 24° ESE
ATLAS CENTAUR R/B 1.0 20:17:43 10° NW 20:21:40 89° WSW 20:22:10 66° SE
IGS 5A 3.7 20:20:27 36° S 20:22:00 65° WSW 20:26:10 10° NNW
Cosmos 1821 Rocket 4.0 20:17:15 10° N 20:23:40 75° ENE 20:26:40 34° SSE
SWARM C 4.4 20:23:47 77° ENE 20:23:47 77° ENE 20:27:03 10° N
SWARM A 4.1 20:23:45 85° S 20:23:50 89° ENE 20:27:11 10° N
USA 32 4.0 20:18:45 10° N 20:24:01 88° W 20:26:24 34° S
Cosmos 1934 Rocket 4.3 20:18:37 10° N 20:24:44 51° ENE 20:26:55 36° SE
Spot 2 Rocket 4.2 20:22:15 21° SSW 20:25:27 51° W 20:30:26 10° NNW
Cosmos 2360 4.2 20:21:26 10° NNW 20:27:11 78° ENE 20:29:15 41° SE
Cosmos 841 Rocket 3.5 20:22:17 10° NNW 20:27:35 77° WSW 20:29:32 40° SSE
STARLINK-60 3.2 20:25:00 10° W 20:27:48 62° WSW 20:27:48 62° WSW
Cosmos 1850 Rocket 3.9 20:24:21 11° SSW 20:29:22 88° ESE 20:34:35 10° NNE
Mayak 0.5 20:26:22 10° NE 20:28:23 19° ENE 20:28:23 19° ENE
Cosmos 2278 3.7 20:24:50 10° NNW 20:30:32 78° ENE 20:32:29 43° SE
Terra 1.8 20:29:53 48° SE 20:31:03 68° ENE 20:35:49 10° N
SPOT 5 2.5 20:31:40 54° SSE 20:32:38 90° NE 20:37:00 10° NNW
Cosmos 2082 Rocket 3.0 20:34:09 31° E 20:34:09 31° E 20:38:28 10° NE
Meteor 2-10 Rocket 3.5 20:33:52 36° S 20:36:05 78° E 20:41:37 10° NNE
Cosmos 1833 Rocket 2.8 20:39:02 46° SE 20:39:58 51° ESE 20:45:25 10° NE
CARTOSAT-1 3.6 20:39:31 52° S 20:40:27 73° WSW 20:44:49 10° NNW
Cosmos 1605 Rocket 4.4 20:37:04 10° N 20:43:00 47° ENE 20:44:41 38° ESE
Cosmos 1408 3.6 20:42:51 10° NNW 20:46:17 39° W 20:46:55 36° WSW
SL-4 R/B 2.7 20:44:23 10° W 20:46:33 35° WSW 20:46:33 35° WSW
ERS-1 Rocket 3.3 20:47:01 38° SSW 20:48:46 59° WSW 20:53:45 10° NNW
RESURS DK-1 3.4 20:45:54 10° NW 20:49:41 34° WSW 20:50:15 33° SW
Cosmos 1766 Rocket 3.9 20:47:29 10° NNW 20:51:55 61° W 20:52:50 49° SW
Okean 3 Rocket 4.2 20:49:08 10° NNW 20:53:25 50° W 20:54:33 39° SW
BREEZE M DEB (TANK) 4.2 20:50:21 10° WSW 20:53:25 28° SW 20:53:25 28° SW
CZ-4C R/B 2.9 20:51:55 10° NW 20:58:52 78° SW 21:01:49 42° SSE
Resurs 01 Rocket 4.3 20:57:04 10° WSW 20:59:16 13° W 21:01:28 10° NW
ALOS 2 4.3 20:59:27 21° ENE 20:59:43 21° ENE 21:03:02 10° N
COSMOS 2406 3.2 20:54:52 14° SW 20:59:50 82° WNW 21:05:37 10° NNE
Cosmos 1500 Rocket 3.7 20:57:48 10° N 21:01:56 58° ENE 21:01:56 58° ENE
Meteor 1-27 4.4 21:05:11 53° ESE 21:05:50 56° E 21:11:33 10° NNE
Cosmos 2151 4.3 21:02:47 10° NNW 21:06:34 33° W 21:07:34 29° WSW
Cosmos 1340 4.3 21:05:53 10° N 21:08:27 27° NE 21:08:27 27° NE
Cosmos 1697 Rocket 3.4 21:07:46 10° NW 21:13:06 42° WSW 21:14:29 36° SW
Cosmos 2369 4.4 21:07:54 10° NW 21:13:14 43° WSW 21:14:34 37° SW
Spot 4 4.2 21:14:42 50° ENE 21:14:53 51° ENE 21:19:33 10° N
Cosmos 1607 4.3 21:28:01 46° E 21:28:01 46° E 21:33:11 10° NE
Cosmos 1408 Rocket 4.4 21:26:56 10° NNW 21:31:08 41° W 21:31:22 41° WSW
Cosmos 1455 4.2 21:31:25 21° W 21:32:33 24° WNW 21:35:46 10° N
Cosmos 1743 Rocket 3.8 21:29:30 10° NNW 21:33:44 67° WNW 21:33:44 67° WNW
Cosmos 1400 Rocket 4.3 21:36:25 29° NE 21:36:25 29° NE 21:38:35 10° NNE
SL-16 R/B 2.2 21:29:45 10° NNW 21:35:27 67° NE 21:36:11 60° E
Cosmos 2360 Rocket 3.2 21:30:45 10° NNW 21:36:01 39° NE 21:37:32 33° ENE
Thor Agena Rocket 3.5 21:31:35 10° NNE 21:36:20 64° E 21:36:20 64° E
NOSS 2-1 (E) 4.3 21:35:17 10° NW 21:40:04 67° NE 21:41:13 54° E
USA 234 3.1 21:34:47 10° ENE 21:41:21 78° SSE 21:47:55 10° WSW
Cosmos 2322 Rocket 2.3 21:36:46 10° NNW 21:42:25 64° NE 21:43:04 59° E
Cosmos 1980 Rocket 2.7 21:38:02 10° NW 21:43:20 44° WSW 21:43:48 43° SW
Cosmos 783 Rocket 4.5 21:39:14 10° NNW 21:44:35 72° ENE 21:44:46 71° ENE
Cosmos 2221 2.9 21:46:37 61° N 21:46:37 61° N 21:50:17 10° N
ASTEX 1 4.1 21:50:00 44° WSW 21:50:28 45° W 21:55:14 10° NNW
Cosmos 1459 Rocket 4.2 21:44:32 10° N 21:50:50 57° ENE 21:51:40 53° ESE
ATLAS 5 CENTAUR R/B 3.8 21:48:38 10° WNW 21:52:44 29° N 21:57:24 10° NE
Cosmos 2333 Rocket 3.8 21:52:57 10° NNW 21:57:51 29° NE 22:00:26 20° ENE
Cosmos 1633 4.4 21:54:57 10° NNW 21:56:58 30° NW 21:56:58 30° NW
ATLAS CENTAUR R/B 3.9 21:57:59 10° W 21:58:21 11° W 21:58:21 11° W
Mayak -0.3 22:01:27 10° N 22:04:58 46° NW 22:04:58 46° NW
Cosmos 1727 Rocket 3.8 22:05:51 72° SSE 22:06:25 79° E 22:12:47 10° NNE
Cosmos 1153 Rocket 4.5 22:01:34 10° NNW 22:07:54 75° W 22:08:42 66° SSW
Terra 3.7 22:08:45 20° W 22:09:17 20° W 22:12:49 10° NW
Cosmos 1666 Rocket 4.3 22:04:58 10° N 22:08:19 50° NNE 22:08:19 50° NNE
Cosmos 2016 Rocket 4.2 22:04:43 10° N 22:10:59 56° ENE 22:11:42 53° E
Cosmos 1725 Rocket 4.5 22:05:58 10° N 22:12:05 48° ENE 22:12:55 45° E
Cosmos 1538 Rocket 4.3 22:07:09 10° NNW 22:12:25 58° ENE 22:12:31 58° ENE
Cosmos 773 Rocket 4.0 22:08:39 10° NNW 22:13:37 75° NNE 22:13:37 75° NNE
Sich 1 3.7 22:11:42 10° NNW 22:15:12 53° NNW 22:15:12 53° NNW
Cosmos 1241 Rocket 4.3 22:10:17 10° NW 22:16:34 86° SW 22:17:01 78° SSE
Cosmos 2082 Rocket 2.6 22:15:56 46° WSW 22:17:21 60° NW 22:22:59 10° NNE
Cosmos 1802 Rocket 3.9 22:11:32 10° N 22:17:45 70° ENE 22:18:13 67° ESE
Cosmos 2100 Rocket 3.8 22:13:54 10° N 22:20:10 90° ENE 22:20:40 78° S
Cosmos 1486 Rocket 4.2 22:22:40 64° WNW 22:22:53 64° WNW 22:28:09 10° NNE
Cosmos 1833 Rocket 3.8 22:20:38 20° WSW 22:24:04 40° NW 22:29:25 10° NNE
Meteor 2-2 Rocket 4.4 22:24:28 61° W 22:24:58 63° WNW 22:30:36 10° N
Cosmos 968 Rocket 3.6 22:25:40 76° NNW 22:25:40 76° NNW 22:30:41 10° NNE
Cosmos 2173 Rocket 3.8 22:19:47 10° N 22:25:56 88° W 22:26:16 81° S
Cosmos 1315 Rocket 4.3 22:31:48 35° NNE 22:31:48 35° NNE 22:34:18 10° NNE
Cosmos 2219 Rocket 3.3 22:27:53 10° NNW 22:33:09 39° NE 22:34:42 32° E
ALOS 2 3.5 22:36:50 45° NW 22:36:50 45° NW 22:40:04 10° NNW
CZ-4C R/B 4.1 22:41:05 10° WNW 22:46:52 26° WSW 22:46:59 26° WSW
Cosmos 44 4.1 22:47:53 43° N 22:47:53 43° N 22:51:10 10° NE
Cosmos 2237 4.2 22:46:19 10° NW 22:51:39 74° WNW 22:51:39 74° WNW
Cosmos 1151 Rocket 4.1 22:55:27 41° NNE 22:55:27 41° NNE 22:58:22 10° NNE
Cosmos 1470 Rocket 4.5 22:49:41 10° N 22:52:49 46° N 22:52:49 46° N
Cosmos 1000 Rocket 4.4 22:56:39 76° SW 22:57:05 82° W 23:03:26 10° N
Cosmos 1633 Rocket 4.3 22:53:10 10° NNW 22:56:12 38° NW 22:56:12 38° NW
Helios 1A 4.4 22:59:02 34° NW 22:59:02 34° NW 23:01:40 10° NNW
Cosmos 2322 3.7 22:53:20 10° NNW 22:59:06 74° ENE 22:59:14 73° ENE
COSMOS 2428 3.2 22:57:04 10° NNW 23:02:41 53° NE 23:03:37 48° E
Cosmos 2333 4.2 22:58:09 10° NNW 23:03:47 74° NE 23:03:49 74° ENE
Cosmos 724 4.2 23:06:36 74° ENE 23:06:36 74° ENE 23:11:58 10° NE
Meteor 1-14 Rocket 4.4 23:01:39 10° N 23:07:38 66° ENE 23:08:00 64° E
Cosmos 1607 4.5 23:12:04 35° W 23:14:29 55° NW 23:20:40 10° NE
Cosmos 839 Rocket 4.0 23:14:56 71° SE 23:15:04 72° SE 23:22:07 10° NE
Meteor 1-20 Rocket 4.2 23:11:25 10° NNW 23:16:59 75° WNW 23:16:59 75° WNW
SL-16 R/B 3.6 23:14:25 10° NW 23:18:02 26° W 23:18:02 26° W
Meteor 2-20 4.4 23:19:36 69° ESE 23:19:51 70° E 23:26:01 10° NNE
Cosmos 2360 Rocket 2.7 23:14:47 10° NW 23:19:17 48° WNW 23:19:17 48° WNW
CZ-2D R/B 4.2 23:17:23 10° NE 23:20:45 16° E 23:21:40 16° E
SL-16 R/B 4.4 23:16:41 10° NNW 23:21:05 22° NNE 23:25:27 10° E
Helios 1B rocket 3.7 23:19:30 10° NNE 23:22:09 38° NNE 23:22:09 38° NNE
USA 234 3.5 23:17:53 10° ENE 23:24:23 69° N 23:30:52 10° W
Cosmos 2322 Rocket 3.6 23:21:20 10° NW 23:24:52 26° W 23:24:52 26° W
Cosmos 2061 Rocket 4.4 23:24:39 10° NNW 23:30:37 47° W 23:30:49 47° W
Cosmos 1869 Rocket 4.4 23:27:02 10° N 23:30:33 51° NNE 23:30:33 51° NNE
Cosmos 1606 4.4 23:34:56 32° NNW 23:34:56 32° NNW 23:37:15 10° N
Cosmos 923 Rocket 4.3 23:28:26 10° NNW 23:32:50 61° NW 23:32:50 61° NW
ATLAS 5 CENTAUR R/B 3.8 23:34:11 10° NW 23:38:43 31° NNE 23:43:55 10° ENE
MOS 1-B Rocket 4.3 23:33:01 10° NNE 23:39:07 67° WNW 23:40:22 56° WSW
Cosmos 1833 4.2 23:41:33 73° E 23:41:33 73° E 23:47:07 10° NE
Cosmos 2333 Rocket 2.1 23:37:05 10° NNW 23:42:25 77° WNW 23:42:25 77° WNW
Cosmos 2237 Rocket 3.0 23:38:23 10° NNW 23:43:53 47° NE 23:46:25 29° ESE
Cosmos 1515 Rocket 4.5 23:45:21 45° NNW 23:45:21 45° NNW 23:48:39 10° N
SME Rocket 4.2 23:42:52 10° N 23:46:10 38° NNW 23:46:10 38° NNW
Cosmos 2233 Rocket 4.0 23:41:24 10° NNW 23:47:37 64° W 23:47:50 64° WSW
MOZ.5/SAFIR/RUBIN 5/SL-8 4.5 23:48:43 48° ENE 23:48:56 48° ENE 23:53:32 10° N
Cosmos 1680 Rocket 3.7 23:44:43 10° NNW 23:49:10 61° NW 23:49:10 61° NW
SL-16 R/B 3.0 23:48:42 37° ESE 23:50:53 55° ENE 23:56:56 10° N
Lacrosse 5 rocket 3.5 23:54:19 18° ENE 23:54:19 18° ENE 23:55:26 10° ENE
Cosmos 44 Rocket 3.6 23:54:00 61° N 23:54:00 61° N 23:58:05 10° NE
PSLV R/B 4.1 23:49:07 10° NNE 23:52:52 61° N 23:52:52 61° N
Cosmos 1536 4.4 23:50:13 10° N 23:53:28 30° ENE 23:53:28 30° ENE
